Retour au catalogue

YUNHAI 2-2C

ActifScienceLEO
NORAD 59282·PAYLOAD·🇨🇳 China

Lancé Mar 21, 2024 depuis Jiuquan Satellite Launch Center

Loading…

Prochains Passages (prochaines 24 heures)

TLE

FraisSource: Space-Track

Époque: Sep 14, 2026, 15:10 UTC

1 59282U 24052C   26257.63201024 -.00000079  00000-0  33114-4 0  9992
2 59282  50.0091 123.3832 0006542 114.4810 245.6788 14.27989467127581

Suivez YUNHAI 2-2C en temps réel avec AllMySat

Download on the App Store